#timestamp,LO_Frequency,Hit,StdDev 
1551207615.4,286047003.5,N
1551207635.2,286047005.2,N
1551207655.0,286047002.9,N
1551207655.9,286047002.9,N
1551207675.8,286047004.4,N
1551207695.6,286047002.5,N
1551207715.4,286047002.5,N
1551207735.3,286047001.5,N
1551207755.1,286047004.1,N
1551207775.9,286047003.0,N
1551207795.7,286047004.7,N
1551207815.5,286047011.9,Y
1551207835.4,286047004.2,P
1551207855.2,286047000.3,N
1551207875.0,286047000.8,N
1551207875.9,286047000.8,N
1551207895.8,286047001.1,N
1551207915.6,286047000.4,N
1551207935.5,286046998.2,N
1551207955.3,286047000.8,N
1551207975.1,286047001.1,N
1551207995.9,286047001.5,N
1551208015.7,286047001.0,N
1551208035.5,286046999.8,N
1551208055.4,286047002.0,N
1551208075.2,286047004.0,Y
1551208095.1,286047002.6,P
1551208096.0,286047002.6,P
1551208115.8,286047000.1,N
1551208135.6,286046999.9,N
1551208155.5,286046999.3,N
1551208175.3,286046998.0,N
1551208195.2,286046996.8,N
1551208215.9,286046997.3,N
1551208235.7,286046998.1,N
1551208255.6,286046998.6,N
1551208275.4,286046999.9,N
1551208295.3,286046999.7,N
1551208315.1,286047002.5,N
1551208316.0,286047002.5,N
1551208335.8,286047001.5,N
1551208355.7,286047000.0,N
1551208375.5,286047002.2,N
1551208395.3,286047000.1,N
1551208415.2,286046998.5,N
1551208435.0,286046998.1,N
1551208435.9,286046998.1,N
1551208455.8,286046998.5,N
1551208475.6,286046999.3,N
1551208495.4,286047002.8,N
1551208515.3,286047002.2,N
1551208535.1,286047001.7,N
1551208555.8,286047004.3,N
1551208575.7,286047002.5,N
1551208595.5,286047002.7,N
1551208615.4,286046999.8,N
1551208635.2,286047000.1,N
1551208655.0,286047000.1,N
1551208655.9,286047000.1,N
1551208675.8,286047002.7,N
1551208695.6,286047002.8,N
1551208715.4,286047001.6,N
1551208735.3,286047002.2,N
1551208755.1,286047002.6,N
1551208775.9,286047001.7,N
1551208795.7,286047001.0,N
1551208815.5,286047000.4,N
1551208835.4,286047000.2,N
1551208855.2,286046998.8,N
1551208875.0,286046998.8,N
1551208876.0,286046998.8,N
1551208895.8,286046998.2,N
1551208915.6,286047000.0,N
1551208935.5,286047000.2,N
1551208955.3,286046999.8,N
1551208975.1,286046999.9,N
1551208995.9,286047002.4,N
1551209015.7,286047002.2,N
1551209035.6,286047000.0,N
1551209055.4,286046999.7,N
1551209075.2,286047001.5,N
1551209095.1,286047001.9,N
1551209096.0,286047001.9,N
1551209115.8,286047002.6,N
1551209135.7,286047002.8,N
1551209155.5,286047002.5,N
1551209175.3,286047001.6,N
1551209195.2,286047000.5,N
1551209215.0,286046999.8,N
1551209215.9,286046999.8,N
1551209235.7,286046999.7,N
1551209255.6,286047002.1,N
1551209275.4,286047002.2,N
1551209295.3,286047002.5,N
1551209315.1,286047002.0,N
1551209335.9,286047011.9,Y
1551209355.7,286047000.9,P
1551209375.5,286047000.1,N
1551209395.4,286047000.4,N
1551209415.2,286047000.5,N
1551209435.1,286047000.6,N
1551209436.0,286047000.6,N
1551209455.8,286046998.7,Y
1551209475.6,286046998.5,P
1551209495.5,286046998.7,N
1551209515.3,286046998.2,N
1551209535.1,286047000.7,N
1551209555.9,286046996.6,Y
1551209575.7,286046998.1,P
1551209595.6,286046999.8,N
1551209615.4,286047002.0,N
1551209635.2,286047000.2,N
1551209655.1,286047000.6,N
1551209656.0,286047000.6,N
1551209675.8,286046998.5,N
1551209695.7,286046998.7,N
1551209715.5,286047002.7,N
1551209735.3,286047000.1,N
1551209755.2,286047002.3,N
1551209775.9,286047000.7,N
1551209795.7,286046998.9,N
1551209815.6,286046999.0,N
1551209835.4,286046998.1,N
1551209855.3,286046999.1,N
1551209875.1,286046996.5,N
1551209876.0,286046996.5,N
1551209895.8,286046996.1,N
1551209915.7,286046996.2,N
1551209935.5,286046993.9,Y
1551209955.3,286046986.3,P
1551209975.2,286046993.4,N
1551209995.0,286046994.5,N
1551209995.9,286046994.5,N
1551210015.8,286046994.6,N
1551210035.6,286046992.1,N
1551210055.4,286046992.5,N
1551210075.3,286046992.7,N
1551210095.1,286046993.1,N
1551210115.9,286046990.6,Y
1551210135.7,286046996.9,P
1551210155.5,286046999.4,N
1551210175.4,286046996.7,N
1551210195.2,286046997.4,N
1551210215.0,286046997.3,N
1551210215.9,286046997.3,N
1551210235.8,286046999.6,N
1551210255.6,286046997.3,N
1551210275.5,286046995.1,N
1551210295.3,286046996.2,N
1551210315.1,286046995.4,N
1551210335.9,286046997.7,N
1551210355.7,286046996.1,N
1551210375.5,286046995.7,N
1551210395.4,286046995.1,Y
1551210415.2,286047000.6,P
1551210435.1,286046998.6,N
1551210436.0,286046998.6,N
1551210455.8,286046999.3,N
1551210475.6,286046996.6,N
1551210495.5,286046999.3,N
1551210515.3,286046998.4,N
1551210535.1,286046998.5,N
1551210555.9,286046998.4,N
1551210575.7,286046997.7,N
1551210595.6,286046997.3,N
1551210615.4,286046997.6,N
1551210635.2,286046995.3,Y
1551210655.1,286046997.7,P
1551210656.0,286046997.7,P
1551210675.8,286046997.5,P
1551210695.7,286046996.7,Y
1551210715.5,286046998.5,P
1551210735.3,286046998.3,P
1551210755.2,286046998.7,P
1551210775.0,286046999.3,N
1551210775.9,286046999.3,N
1551210795.8,286046998.3,Y
1551210815.6,286047000.7,P
1551210835.4,286047000.8,N
1551210855.3,286047000.7,N
1551210875.1,286046999.9,N
1551210895.8,286047001.1,N
1551210915.7,286046998.5,N
1551210935.5,286047002.8,N
1551210955.4,286047002.2,N
1551210975.2,286047002.2,N
1551210995.0,286047000.3,N
1551210995.9,286047000.3,N
1551211015.8,286047000.4,N
1551211035.6,286047000.3,N
1551211055.4,286046998.1,N
1551211075.3,286046999.4,N
1551211095.1,286046998.8,N
1551211115.9,286047000.3,N
1551211135.7,286047000.7,N
1551211155.5,286046999.4,N
1551211175.4,286046998.4,N
1551211195.2,286047000.9,N
